Retour au catalogue

STARLINK-35178

ActifCommunicationsSSO
NORAD 65610·PAYLOAD·🇺🇸 United States

Lancé Sep 13, 2025 depuis Cape Canaveral Space Force Station

Loading…

Prochains Passages (prochaines 24 heures)

TLE

FraisSource: CelesTrak SupGP

Époque: Sep 14, 2026, 20:54 UTC

1 65610C 25207U   26257.87131944  .02238300  00000+0  11130+0 0  2572
2 65610  97.2842 320.5474 0001454  81.8810 138.2588 15.16587975    17

Suivez STARLINK-35178 en temps réel avec AllMySat

Download on the App Store